EW3707 Weather Reports


time (UTC)temp
C
wind
direction
speed
KPH
gust
KPH
rain 1hr
cm
rain 24hr
cm
rain mn
cm
humidity
%
barometer
mb
20260906180016 26 68 8.0 17.7 0.00 0.00 0.00 53 1019.9
20260906175016 26 90 4.8 16.1 0.00 0.00 0.00 53 1020.1
20260906174016 26 113 1.6 11.3 0.00 0.00 0.00 53 1020.1
20260906173017 27 135 3.2 12.9 0.00 0.00 0.00 53 1020.0
20260906172016 27 135 1.6 9.7 0.00 0.00 0.00 55 1020.3
20260906171016 26 90 6.4 14.5 0.00 0.00 0.00 57 1020.0
20260906170017 26 113 3.2 9.7 0.00 0.00 0.00 56 1020.3
20260906165016 26 90 3.2 14.5 0.00 0.00 0.00 59 1020.5
20260906164016 26 90 1.6 8.0 0.00 0.00 0.00 58 1020.4
20260906163016 26 135 3.2 11.3 0.00 0.00 0.00 58 1020.6
20260906162016 25 203 1.6 6.4 0.00 0.00 0.00 64 1020.5
20260906161057 25 90 1.6 8.0 0.00 0.00 0.00 65 1020.7
20260906160017 24 135 1.6 8.0 0.00 0.00 0.00 65 1020.7
20260906155016 24 113 3.2 8.0 0.00 0.00 0.00 69 1020.8
20260906154036 24 90 1.6 6.4 0.00 0.00 0.00 72 1020.7
20260906153017 23 0.0 4.8 0.00 0.00 0.00 73 1020.6
20260906152016 23 90 4.8 12.9 0.00 0.00 0.00 74 1020.5
20260906151016 23 90 1.6 9.7 0.00 0.00 0.00 75 1020.7
20260906150036 23 90 1.6 6.4 0.00 0.00 0.00 76 1020.6
20260906145017 22 90 4.8 9.7 0.00 0.00 0.00 76 1020.6
20260906144016 22 180 1.6 8.0 0.00 0.00 0.00 76 1020.6
20260906143036 21 90 3.2 12.9 0.00 0.00 0.00 75 1020.8
20260906142017 21 90 3.2 9.7 0.00 0.00 0.00 74 1020.6
20260906141016 21 90 3.2 8.0 0.00 0.00 0.00 73 1020.7
20260906140016 21 90 1.6 6.4 0.00 0.00 0.00 68 1020.7
20260906135016 21 135 1.6 4.8 0.00 0.00 0.00 54 1020.6
20260906134016 20 90 1.6 4.8 0.00 0.00 0.00 43 1020.7
20260906133036 20 113 1.6 9.7 0.00 0.00 0.00 50 1020.6
20260906132016 20 0.0 4.8 0.00 0.00 0.00 44 1020.5
20260906131017 20 90 3.2 9.7 0.00 0.00 0.00 33 1020.2
20260906130017 20 0.0 4.8 0.00 0.00 0.00 1 1020.0
20260906125016 19 0.0 0.0 0.00 0.00 0.00 1 1020.1
20260906124036 18 0.0 1.6 0.00 0.00 0.00 1 1020.2
20260906123016 18 0.0 3.2 0.00 0.00 0.00 1 1019.9
20260906122036 18 0.0 1.6 0.00 0.00 0.00 1 1019.9
20260906121016 18 113 1.6 8.0 0.00 0.00 0.00 1 1019.8
20260906120016 18 113 1.6 4.8 0.00 0.00 0.00 1 1019.8
20260906115016 18 113 1.6 8.0 0.00 0.00 0.00 1 1019.9
20260906114056 18 90 1.6 6.4 0.00 0.00 0.00 1 1019.8
20260906113016 18 90 1.6 6.4 0.00 0.00 0.00 1 1019.8
20260906112036 18 0.0 1.6 0.00 0.00 0.00 1 1019.8
20260906111016 18 0.0 0.0 0.00 0.00 0.00 1 1019.6
20260906110016 18 0.0 1.6 0.00 0.00 0.00 1 1019.7
20260906105016 18 0.0 0.0 0.00 0.00 0.00 1 1019.8
20260906104016 18 0.0 1.6 0.00 0.00 0.00 1 1019.7
20260906103016 18 0.0 0.0 0.00 0.00 0.00 1 1019.4
20260906102016 18 0.0 1.6 0.00 0.00 0.00 1 1019.2
20260906101036 18 0.0 0.0 0.00 0.00 0.00 1 1019.0
20260906100016 18 0.0 0.0 0.00 0.00 0.00 1 1019.1
20260906095016 18 0.0 0.0 0.00 0.00 0.00 1 1018.9
20260906094036 18 0.0 0.0 0.00 0.00 0.00 1 1018.9
20260906093016 19 0.0 0.0 0.00 0.00 0.00 1 1018.9
20260906092016 19 0.0 0.0 0.00 0.00 0.00 8 1019.0
20260906091016 19 0.0 0.0 0.00 0.00 0.00 15 1018.8
20260906090016 20 0.0 3.2 0.00 0.00 0.00 17 1018.8
20260906085016 20 0.0 4.8 0.00 0.00 0.00 17 1018.6
20260906084017 20 113 1.6 4.8 0.00 0.00 0.00 17 1018.4
20260906083016 20 0.0 3.2 0.00 0.00 0.00 21 1018.6
20260906082016 20 0.0 1.6 0.00 0.00 0.00 26 1018.7
20260906081016 20 113 1.6 8.0 0.00 0.00 0.00 26 1018.7
20260906080016 20 90 1.6 4.8 0.00 0.00 0.00 26 1018.8
20260906075016 20 0.0 1.6 0.00 0.00 0.00 27 1018.9
20260906074016 20 0.0 1.6 0.00 0.00 0.00 28 1018.9
20260906073016 20 0.0 3.2 0.00 0.00 0.00 30 1018.9
20260906072016 20 0.0 1.6 0.00 0.00 0.00 27 1018.9
20260906071016 20 0.0 1.6 0.00 0.00 0.00 22 1018.8
20260906070036 20 0.0 0.0 0.00 0.00 0.00 23 1019.0
20260906065016 20 0.0 1.6 0.00 0.00 0.00 24 1019.1
20260906064016 20 0.0 0.0 0.00 0.00 0.00 28 1019.2
20260906063016 20 0.0 3.2 0.00 0.00 0.00 31 1019.0
20260906062016 20 0.0 1.6 0.00 0.00 0.00 35 1019.1
20260906061036 20 0.0 0.0 0.00 0.00 0.00 35 1019.1
20260906060016 21 0.0 0.0 0.00 0.00 0.00 39 1019.1
20260906055016 21 0.0 0.0 0.00 0.00 0.00 45 1019.1
20260906054016 21 0.0 1.6 0.00 0.00 0.00 43 1019.1
20260906053016 21 0.0 0.0 0.00 0.00 0.00 48 1019.0
20260906052016 21 0.0 3.2 0.00 0.00 0.00 46 1019.0
20260906051016 21 0.0 0.0 0.00 0.00 0.00 45 1019.0
20260906050016 21 0.0 1.6 0.00 0.00 0.00 41 1018.8
20260906045017 20 0.0 0.0 0.00 0.00 0.00 36 1018.8
20260906044017 20 0.0 0.0 0.00 0.00 0.00 35 1018.7
20260906043017 20 0.0 0.0 0.00 0.00 0.00 26 1018.5
20260906042017 20 0.0 1.6 0.00 0.00 0.00 18 1018.5
20260906041016 20 0.0 0.0 0.00 0.00 0.00 6 1018.5
20260906040017 20 0.0 1.6 0.00 0.00 0.00 1 1018.4
20260906035017 20 0.0 0.0 0.00 0.00 0.00 1 1018.0
20260906034017 20 0.0 0.0 0.00 0.00 0.00 1 1018.0
20260906033017 20 0.0 0.0 0.00 0.00 0.00 1 1018.2
20260906032017 20 0.0 0.0 0.00 0.00 0.00 4 1018.2
20260906031016 20 0.0 0.0 0.00 0.00 0.00 16 1018.1
20260906030017 20 0.0 0.0 0.00 0.00 0.00 26 1018.0
20260906025016 21 0.0 0.0 0.00 0.00 0.00 30 1017.8
20260906024017 21 0.0 0.0 0.00 0.00 0.00 38 1017.6
20260906023017 21 0.0 0.0 0.00 0.00 0.00 45 1017.4
20260906022016 21 0.0 0.0 0.00 0.00 0.00 50 1017.2
20260906021017 22 0.0 0.0 0.00 0.00 0.00 59 1017.2
20260906020017 22 0.0 0.0 0.00 0.00 0.00 65 1017.0
20260906015056 22 0.0 0.0 0.00 0.00 0.00 71 1016.8
20260906014016 23 0.0 0.0 0.00 0.00 0.00 74 1016.4
20260906013017 23 0.0 0.0 0.00 0.00 0.00 75 1016.3
20260906012017 23 0.0 1.6 0.00 0.00 0.00 75 1016.3
20260906011017 23 0.0 3.2 0.00 0.00 0.00 75 1016.1
20260906010017 24 0.0 1.6 0.00 0.00 0.00 75 1016.2
20260906005016 24 0.0 1.6 0.00 0.00 0.00 75 1016.1
20260906004016 25 0.0 1.6 0.00 0.00 0.00 74 1016.1
20260906003016 25 0.0 1.6 0.00 0.00 0.00 73 1016.2
20260906002016 25 90 3.2 16.1 0.00 0.00 0.00 72 1016.1
20260906001017 26 90 1.6 9.7 0.00 0.00 0.00 71 1016.0
20260906000016 26 68 1.6 6.4 0.00 0.00 0.00 71 1016.1
20260905235016 26 90 3.2 14.5 0.00 0.00 0.00 69 1016.0
20260905234036 27 90 3.2 9.7 0.00 0.00 0.00 68 1016.1
20260905233017 27 90 1.6 8.0 0.00 0.00 0.00 68 1016.2
20260905232017 27 90 1.6 8.0 0.00 0.00 0.00 67 1016.2
20260905231016 27 45 3.2 11.3 0.00 0.00 0.00 66 1016.0
20260905230017 28 0.0 3.2 0.00 0.00 0.00 66 1016.2
20260905225016 28 90 3.2 11.3 0.00 0.00 0.00 65 1016.1
20260905224016 28 45 1.6 9.7 0.00 0.00 0.00 63 1016.1
20260905223017 28 0.0 4.8 0.00 0.00 0.00 64 1016.2
20260905222036 28 0.0 1.6 0.00 0.00 0.00 64 1016.3
20260905221016 28 0.0 4.8 0.00 0.00 0.00 65 1016.5
20260905220016 27 0.0 3.2 0.00 0.00 0.00 66 1016.5
20260905215016 27 0.0 3.2 0.00 0.00 0.00 65 1016.6
20260905214017 28 90 1.6 6.4 0.00 0.00 0.00 64 1016.7
20260905213016 28 0.0 1.6 0.00 0.00 0.00 64 1016.8
20260905212017 28 0.0 4.8 0.00 0.00 0.00 63 1016.9
20260905211017 28 0.0 1.6 0.00 0.00 0.00 64 1016.8
20260905210037 27 0.0 1.6 0.00 0.00 0.00 67 1016.9
20260905205016 27 0.0 1.6 0.00 0.00 0.00 67 1017.0
20260905204017 28 225 1.6 8.0 0.00 0.00 0.00 66 1017.1
20260905203036 27 0 1.6 4.8 0.00 0.00 0.00 67 1017.1
20260905202016 27 0.0 3.2 0.00 0.00 0.00 67 1017.2
20260905201016 27 0.0 1.6 0.00 0.00 0.00 68 1017.5
20260905200016 27 0.0 4.8 0.00 0.00 0.00 66 1017.4
20260905195016 28 248 1.6 4.8 0.00 0.00 0.00 64 1017.4
20260905194016 27 0.0 1.6 0.00 0.00 0.00 66 1017.4
20260905193016 28 0.0 1.6 0.00 0.00 0.00 65 1017.3
20260905192016 27 0.0 4.8 0.00 0.00 0.00 67 1017.3
20260905191016 27 0.0 3.2 0.00 0.00 0.00 69 1017.3
20260905190016 26 0.0 3.2 0.00 0.00 0.00 72 1017.2
20260905185017 26 0.0 1.6 0.00 0.00 0.00 72 1017.4
20260905184016 26 0.0 3.2 0.00 0.00 0.00 73 1017.4
20260905183016 26 113 1.6 4.8 0.00 0.00 0.00 73 1017.5
20260905182016 26 0.0 0.0 0.00 0.00 0.00 72 1017.7
20260905181016 26 0.0 0.0 0.00 0.00 0.00 72 1017.7